Date String (YYYY-MM-DD hh:mm:ss) UTC,Instrument flags,absolute air pressure of the measurement (hPa),sample flow rate (lpm),inlet stack bypass flow (lpm),air temperature of the measurement (°C),ambient temperature measured by the external sensor (°C),aerosol sample conditioner tube jacket temperature (°C),OPC LED temperature (°C),internal box temperature (°C),relative humidity of the measurement (%),span deviation,mass concentration of particles derived from Lorenz-Mie calculation of OPC scattering (μg/m³),mass concentration of particles derived from Lorenz-Mie calculation of OPC scattering (μg/m³),mass concentration of particles derived from Lorenz-Mie calculation of OPC scattering (μg/m³)
DateTimeUTC,F1_M11,P_M11,Q1_M11,Q2_M11,T1_M11,T2_M11,T3_M11,T4_M11,T5_M11,U1_M11,ZSPAN_M11,X2_M11,X0_M11,X1_M11
2024-05-21 11:00:00,SystemResetWarning,0823.6,5.00,000.00,027.2,026.3,000.0,035.7,029.0,023.8,0000.0,0002.63,0003.77,0002.19
2024-05-21 11:01:00,SystemResetWarning,0823.6,5.00,000.00,027.1,026.3,000.0,035.7,028.9,023.7,0000.0,0002.56,0004.00,0002.14
2024-05-21 11:02:00,SystemResetWarning,0823.6,4.99,000.00,027.1,026.2,000.0,035.7,028.9,023.8,0000.0,0002.56,0004.05,0002.11
2024-05-21 11:03:00,SystemResetWarning,0823.6,4.99,000.00,027.1,026.2,000.0,035.7,028.9,023.9,0000.0,0002.55,0004.08,0002.10
2024-05-21 11:04:00,SystemResetWarning,0823.6,5.01,000.00,027.1,026.2,000.0,035.7,028.9,023.9,0000.0,0002.57,0004.23,0002.10
2024-05-21 11:05:00,SystemResetWarning,0823.6,5.01,000.00,027.1,026.2,000.0,035.7,028.9,024.0,0000.0,0002.61,0005.20,0002.12
2024-05-21 11:06:00,SystemResetWarning,0823.6,4.99,000.00,027.1,026.2,000.0,035.7,028.9,023.9,0000.0,0002.56,0004.97,0002.12
2024-05-21 11:07:00,SystemResetWarning,0823.6,4.99,000.00,027.1,026.2,000.0,035.6,028.9,023.9,0000.0,0002.51,0004.69,0002.12
2024-05-21 11:08:00,SystemResetWarning,0823.6,5.00,000.00,027.1,026.2,000.0,035.6,028.9,023.9,0000.0,0002.52,0004.69,0002.13
2024-05-21 11:09:00,SystemResetWarning,0823.6,5.01,000.00,027.0,026.2,000.0,035.6,028.9,023.9,0000.0,0002.59,0004.68,0002.18
2024-05-21 11:10:00,SystemResetWarning,0823.6,5.00,000.00,027.0,026.2,000.0,035.6,028.9,023.9,0000.0,0002.67,0004.82,0002.21
2024-05-21 11:11:00,SystemResetWarning,0823.6,4.99,000.00,027.0,026.1,000.0,035.6,028.8,023.9,0000.0,0002.72,0004.82,0002.26
2024-05-21 11:12:00,SystemResetWarning,0823.5,4.99,000.00,027.0,026.1,000.0,035.6,028.8,023.9,0000.0,0002.74,0005.54,0002.29
2024-05-21 11:13:00,SystemResetWarning,0823.5,5.01,000.00,027.0,026.1,000.0,035.6,028.8,023.8,0000.0,0002.77,0005.58,0002.32
2024-05-21 11:14:00,SystemResetWarning,0823.5,5.01,000.00,027.0,026.1,000.0,035.6,028.8,023.8,0000.0,0002.76,0005.55,0002.32
2024-05-21 11:15:00,SystemResetWarning,0823.4,5.00,000.00,027.0,026.1,000.0,035.6,028.7,023.7,0000.0,0002.70,0005.45,0002.30
2024-05-21 11:16:00,SystemResetWarning,0823.4,5.00,000.00,026.9,026.0,000.0,035.6,028.7,023.7,0000.0,0002.64,0004.66,0002.27
2024-05-21 11:17:00,SystemResetWarning,0823.4,4.99,000.00,026.9,026.0,000.0,035.6,028.7,023.6,0000.0,0002.61,0004.45,0002.22
2024-05-21 11:18:00,SystemResetWarning,0823.3,5.00,000.00,026.9,026.0,000.0,035.6,028.6,023.6,0000.0,0002.57,0004.50,0002.16
2024-05-21 11:19:00,SystemResetWarning,0823.3,5.01,000.00,026.9,026.0,000.0,035.6,028.6,023.5,0000.0,0002.51,0004.55,0002.09
2024-05-21 11:20:00,SystemResetWarning,0823.3,5.01,000.00,026.8,025.9,000.0,035.5,028.6,023.4,0000.0,0002.37,0004.40,0001.99
2024-05-21 11:21:00,SystemResetWarning,0823.2,4.99,000.00,026.8,025.9,000.0,035.5,028.5,023.4,0000.0,0002.23,0004.23,0001.91
2024-05-21 11:22:00,SystemResetWarning,0823.2,4.99,000.00,026.8,025.9,000.0,035.5,028.5,023.5,0000.0,0002.18,0004.30,0001.85
2024-05-21 11:23:00,SystemResetWarning,0823.2,5.01,000.00,026.8,025.9,000.0,035.5,028.6,023.5,0000.0,0002.13,0003.45,0001.80
2024-05-21 11:24:00,SystemResetWarning,0823.2,5.01,000.00,026.8,025.9,000.0,035.5,028.6,023.5,0000.0,0002.08,0003.47,0001.77
2024-05-21 11:25:00,SystemResetWarning,0823.1,4.99,000.00,026.8,025.9,000.0,035.4,028.6,023.5,0000.0,0002.07,0003.73,0001.76
2024-05-21 11:26:00,SystemResetWarning,0823.2,4.99,000.00,026.8,025.9,000.0,035.4,028.6,023.5,0000.0,0002.11,0003.93,0001.76
2024-05-21 11:27:00,SystemResetWarning,0823.2,5.00,000.00,026.8,025.9,000.0,035.4,028.6,023.6,0000.0,0002.16,0004.17,0001.77
2024-05-21 11:28:00,SystemResetWarning,0823.2,5.01,000.00,026.8,025.9,000.0,035.4,028.6,023.6,0000.0,0002.20,0004.27,0001.80
2024-05-21 11:29:00,SystemResetWarning,0823.2,5.00,000.00,026.8,025.9,000.0,035.4,028.6,023.6,0000.0,0002.21,0004.21,0001.84
2024-05-21 11:30:00,SystemResetWarning,0823.3,4.99,000.00,026.8,025.9,000.0,035.3,028.6,023.7,0000.0,0002.23,0004.08,0001.91
2024-05-21 11:31:00,SystemResetWarning,0823.2,5.00,000.00,026.8,025.9,000.0,035.3,028.6,023.7,0000.0,0002.37,0004.25,0002.01
2024-05-21 11:32:00,SystemResetWarning,0823.3,5.01,000.00,026.8,025.9,000.0,035.3,028.6,024.6,0000.0,0002.48,0004.48,0002.11
2024-05-21 11:33:00,SystemResetWarning,0823.3,5.01,000.00,026.8,025.9,000.0,035.3,028.6,024.6,0000.0,0002.56,0004.50,0002.20
2024-05-21 11:34:00,SystemResetWarning,0823.4,4.98,000.00,026.8,025.9,000.0,035.3,028.6,024.0,0000.0,0002.66,0004.68,0002.28
2024-05-21 11:35:00,SystemResetWarning,0823.4,5.00,000.00,026.8,025.9,000.0,035.3,028.6,023.9,0000.0,0002.80,0004.72,0002.38
2024-05-21 11:36:00,SystemResetWarning,0823.4,5.01,000.00,026.8,025.9,000.0,035.3,028.6,023.9,0000.0,0002.90,0004.81,0002.48
2024-05-21 11:37:00,SystemResetWarning,0823.4,5.00,000.00,026.8,025.9,000.0,035.3,028.6,023.9,0000.0,0002.97,0005.80,0002.59
2024-05-21 11:38:00,SystemResetWarning,0823.5,4.99,000.00,026.7,025.9,000.0,035.3,028.6,023.8,0000.0,0003.07,0006.85,0002.70
2024-05-21 11:39:00,SystemResetWarning,0823.4,4.99,000.00,026.7,025.9,000.0,035.3,028.6,023.8,0000.0,0003.12,0006.79,0002.78
2024-05-21 11:40:00,SystemResetWarning,0823.4,5.01,000.00,026.7,025.9,000.0,035.3,028.6,023.8,0000.0,0003.15,0006.82,0002.85
2024-05-21 11:41:00,SystemResetWarning,0823.4,5.01,000.00,026.7,025.9,000.0,035.3,028.6,023.9,0000.0,0003.19,0006.91,0002.92
2024-05-21 11:42:00,SystemResetWarning,0823.4,4.99,000.00,026.7,025.9,000.0,035.3,028.5,023.9,0000.0,0003.21,0006.97,0002.98
2024-05-21 11:43:00,SystemResetWarning,0823.4,4.99,000.00,026.7,025.9,000.0,035.2,028.5,023.9,0000.0,0003.24,0006.93,0003.05
2024-05-21 11:44:00,SystemResetWarning,0823.4,5.01,000.00,026.7,025.9,000.0,035.2,028.5,023.8,0000.0,0003.27,0006.94,0003.10
2024-05-21 11:45:00,SystemResetWarning,0823.4,5.01,000.00,026.7,025.9,000.0,035.2,028.5,023.8,0000.0,0003.31,0006.91,0003.13
2024-05-21 11:46:00,SystemResetWarning,0823.4,4.99,000.00,026.7,025.8,000.0,035.2,028.5,023.8,0000.0,0003.31,0006.72,0003.14
2024-05-21 11:47:00,SystemResetWarning,0823.4,4.99,000.00,026.7,025.8,000.0,035.2,028.5,023.8,0000.0,0003.31,0006.33,0003.15
2024-05-21 11:48:00,SystemResetWarning,0823.5,5.00,000.00,026.7,025.8,000.0,035.2,028.5,023.8,0000.0,0003.30,0005.42,0003.14
2024-05-21 11:49:00,SystemResetWarning,0823.5,5.01,000.00,026.7,025.8,000.0,035.2,028.5,023.8,0000.0,0003.30,0004.51,0003.13
2024-05-21 11:50:00,SystemResetWarning,0823.5,4.99,000.00,026.7,025.8,000.0,035.2,028.5,023.8,0000.0,0003.30,0004.61,0003.12
2024-05-21 11:51:00,SystemResetWarning,0823.5,4.99,000.00,026.6,025.8,000.0,035.2,028.5,023.8,0000.0,0003.29,0004.55,0003.11
2024-05-21 11:52:00,SystemResetWarning,0823.5,5.00,000.00,026.6,025.8,000.0,035.2,028.5,023.7,0000.0,0003.26,0004.51,0003.09
2024-05-21 11:53:00,SystemResetWarning,0823.5,5.01,000.00,026.6,025.8,000.0,035.2,028.5,023.6,0000.0,0003.22,0004.34,0003.02
2024-05-21 11:54:00,SystemResetWarning,0823.5,5.01,000.00,026.6,025.8,000.0,035.1,028.5,023.5,0000.0,0003.19,0004.30,0002.93
2024-05-21 11:55:00,SystemResetWarning,0823.5,5.00,000.00,026.7,025.8,000.0,035.1,028.5,023.4,0000.0,0003.12,0004.17,0002.81
2024-05-21 11:56:00,SystemResetWarning,0823.5,4.98,000.00,026.7,025.8,000.0,035.1,028.5,023.3,0000.0,0002.98,0004.00,0002.69
2024-05-21 11:57:00,SystemResetWarning,0823.6,5.00,000.00,026.7,025.9,000.0,035.1,028.5,023.2,0000.0,0002.87,0004.02,0002.56
2024-05-21 11:58:00,SystemResetWarning,0823.5,5.01,000.00,026.7,025.9,000.0,035.1,028.5,023.0,0000.0,0002.74,0003.94,0002.41
2024-05-21 11:59:00,SystemResetWarning,0823.5,5.01,000.00,026.6,025.8,000.0,035.1,028.4,022.9,0000.0,0002.63,0003.84,0002.29
